{"data":{"norad_id":67606,"intl_designator":"2026-018T","name":"STARLINK-35843","alt_names":[],"object_type":"PAYLOAD","status":"ACTIVE","operator":null,"country":"US","launch_date":"2026-01-29","launch_site_code":"AFWTR","launch_vehicle":null,"mission":null,"orbit_class":"UNKNOWN","rcs_meters":null,"size_class":null,"mass_kg":null,"dimensions":null,"purposes":["comms"],"wikipedia_slug":null,"has_3d_model":false,"image_url":null,"decayed_at":null,"tle_current":{"epoch":"2026-05-25T03:38:15.304992Z","epoch_age_seconds":65924,"freshness":"FRESH","line1":"1 67606U 26018T   26145.15156603  .00033041  00000+0  10201-2 0  9993","line2":"2 67606  97.2845 210.3021 0000583  63.4563 296.6739 15.33482268 19053","mean_motion":15.33482268,"eccentricity":5.83e-5,"inclination_deg":97.2845,"raan_deg":210.3021,"arg_perigee_deg":63.4563,"mean_anomaly_deg":296.6739,"bstar":0.0010201,"rev_number":1905,"period_min":93.903922467788,"perigee_km":465.03331328626,"apogee_km":465.83127346586,"semimajor_km":6843.5692933761,"source":"CELESTRAK","updated_at":"2026-05-25T13:38:21.646922Z"}}}